Weather History for Moab, UT

Change the Weather History Date:

Wednesday, December 19, 2012

  Actual Average Record
Temperature  
Mean Temperature 12 °F 25 °F  
Max Temperature 29 °F 36 °F 61 °F (1955)
Min Temperature -5 °F 15 °F -5 °F (2012)
Degree Days  
Heating Degree Days 53 40  
Month to date heating degree days 565 706  
Since 1 July heating degree days 1609 1915  
Cooling Degree Days 0 0  
Month to date cooling degree days 0 0  
Year to date cooling degree days 1513 1289  
Moisture  
Dew Point 17 °F    
Average Humidity 80    
Maximum Humidity 100    
Minimum Humidity 60    
Precipitation  
Precipitation 0.20 in 0.02 in 0.41 in (1967)
Month to date precipitation 0.54 0.32  
Year to date precipitation 3.20 8.52  
Sea Level Pressure  
Sea Level Pressure 29.92 in    
Wind  
Wind Speed 4 mph (North)    
Max Wind Speed 14 mph    
Max Gust Speed 16 mph    
Visibility 6 miles    
Events Fog , Snow    
T = Trace of Precipitation, MM = Missing Value Source: NWS Daily Summary

Daily Weather History Graph

Daily Weather History Graph

Search for Another Location

Airport:

Trip Planner

Search our weather history database for the weather conditions in past years. The results will help you decide how hot, cold, wet, or windy it might be!

Date:

Astronomy

Dec. 19, 2012 Rise Set
Actual Time 7:32 AM MST 5:00 PM MST
Civil Twilight 7:02 AM MST 5:30 PM MST
Nautical Twilight 6:29 AM MST 6:03 PM MST
Astronomical Twilight 5:57 AM MST 6:35 PM MST
Moon 11:47 AM MST (12/19) No Moon Set
Length of Visible Light 10h 27m
Length of Day
9h 27m
Waxing Crescent, 45% of the Moon is Illuminated
Dec 19
Waxing Crescent
Dec 19
First Quarter
Dec 28
Full
Jan 4
Last Quarter
Jan 11
New

Hourly Weather History & Observations

Time (MST) Temp. Windchill Dew Point Humidity Pressure Visibility Wind Dir Wind Speed Gust Speed Precip Events Conditions
12:53 AM 27.0 °F 21.6 °F 26.1 °F 96% 29.61 in 0.5 mi SSE 4.6 mph - 0.10 in Fog , Snow Snow
1:01 AM 26.6 °F 21.2 °F 26.6 °F 100% 29.60 in 0.8 mi South 4.6 mph - 0.01 in Snow Light Snow
1:53 AM 26.1 °F 18.4 °F 25.0 °F 96% 29.64 in 1.0 mi SSE 6.9 mph - 0.05 in Snow Light Snow
2:04 AM 26.6 °F 20.0 °F 24.8 °F 93% 29.62 in 1.0 mi SSE 5.8 mph - 0.00 in Snow Light Snow
2:18 AM 26.6 °F 22.6 °F 24.8 °F 93% 29.62 in 0.8 mi SE 3.5 mph - 0.01 in Snow Light Snow
2:32 AM 26.6 °F 22.6 °F 24.8 °F 93% 29.62 in 0.8 mi SE 3.5 mph - 0.03 in Snow Light Snow
2:53 AM 26.1 °F - 25.0 °F 96% 29.62 in 0.8 mi Calm Calm - 0.05 in Snow Light Snow
3:03 AM 26.6 °F 22.6 °F 26.6 °F 100% 29.62 in 1.0 mi East 3.5 mph - 0.00 in Snow Light Snow
3:11 AM 26.6 °F 22.6 °F 24.8 °F 93% 29.63 in 1.5 mi ESE 3.5 mph - 0.00 in Snow Light Snow
3:19 AM 26.6 °F 20.0 °F 24.8 °F 93% 29.61 in 1.8 mi ENE 5.8 mph - 0.00 in Snow Light Snow
3:26 AM 26.6 °F 19.1 °F 23.0 °F 86% 29.62 in 2.5 mi East 6.9 mph - 0.00 in Snow Light Snow
3:41 AM 26.6 °F 20.0 °F 23.0 °F 86% 29.63 in 1.8 mi East 5.8 mph - 0.01 in Snow Light Snow
3:53 AM 25.0 °F 19.3 °F 24.1 °F 96% 29.67 in 1.2 mi ESE 4.6 mph - 0.01 in Snow Light Snow
4:07 AM 24.8 °F 19.1 °F 23.0 °F 93% 29.65 in 2.5 mi ESE 4.6 mph - 0.00 in Snow Light Snow
4:09 AM 24.8 °F 17.9 °F 23.0 °F 93% 29.65 in 3.0 mi ESE 5.8 mph - 0.00 in Snow Light Snow
4:53 AM 25.0 °F - 21.9 °F 88% 29.69 in 10.0 mi Calm Calm - 0.00 in   Overcast
5:32 AM 24.8 °F 17.9 °F 19.4 °F 80% 29.67 in 7.0 mi North 5.8 mph - 0.00 in Snow Light Snow
5:41 AM 24.8 °F 19.1 °F 19.4 °F 80% 29.68 in 9.0 mi NNE 4.6 mph - 0.00 in   Overcast
5:53 AM 24.1 °F 19.7 °F 21.0 °F 88% 29.73 in 10.0 mi NW 3.5 mph - 0.00 in   Overcast
6:53 AM 24.1 °F 14.4 °F 21.9 °F 91% 29.79 in 5.0 mi WNW 9.2 mph - 0.00 in Snow Light Snow
7:07 AM 24.8 °F 16.9 °F 21.2 °F 86% 29.76 in 2.0 mi WNW 6.9 mph - 0.00 in Snow Light Snow
7:24 AM 24.8 °F 16.9 °F 21.2 °F 86% 29.78 in 3.0 mi NW 6.9 mph - 0.00 in Snow Light Snow
7:41 AM 24.8 °F 20.5 °F 21.2 °F 86% 29.80 in 9.0 mi NW 3.5 mph - 0.00 in   Overcast
7:53 AM 24.1 °F 18.2 °F 19.0 °F 81% 29.85 in 10.0 mi NNW 4.6 mph - 0.00 in   Overcast
8:53 AM 25.0 °F 16.3 °F 18.0 °F 75% 29.94 in 9.0 mi NNW 8.1 mph - 0.00 in   Overcast
9:53 AM 23.0 °F 11.7 °F 12.9 °F 65% 30.02 in 10.0 mi WNW 11.5 mph - N/A   Mostly Cloudy
10:53 AM 19.9 °F 7.9 °F 10.9 °F 68% 30.08 in 10.0 mi NW 11.5 mph - N/A   Clear
11:53 AM 19.0 °F 8.2 °F 12.0 °F 74% 30.11 in 10.0 mi NW 9.2 mph - N/A   Clear
12:53 PM 23.0 °F 13.1 °F 15.1 °F 72% 30.14 in 10.0 mi WNW 9.2 mph - N/A   Clear
1:53 PM 25.0 °F 17.1 °F 14.0 °F 63% 30.16 in 10.0 mi West 6.9 mph - N/A   Clear
2:53 PM 24.1 °F - 12.9 °F 62% 30.21 in 10.0 mi Calm Calm - N/A   Clear
3:53 PM 21.9 °F - 12.9 °F 68% 30.27 in 10.0 mi Calm Calm - N/A   Scattered Clouds
4:53 PM 19.9 °F - 14.0 °F 78% 30.30 in 10.0 mi Calm Calm - N/A   Clear
5:53 PM 16.0 °F 6.3 °F 7.0 °F 68% 30.35 in 10.0 mi WSW 6.9 mph - N/A   Clear
6:53 PM 10.4 °F - 3.2 °F 73% 30.25 in 10.0 mi Calm Calm - N/A   Clear
7:53 PM 10.0 °F - 3.9 °F 76% 30.44 in 10.0 mi Calm Calm - N/A   Clear
8:53 PM 6.1 °F -0.9 °F 1.0 °F 80% 30.48 in 10.0 mi West 3.5 mph - N/A   Clear
9:53 PM 5.0 °F - -0.9 °F 76% 30.53 in 10.0 mi Calm Calm - N/A   Clear
10:53 PM 1.0 °F - -4.0 °F 79% 30.58 in 10.0 mi Calm Calm - N/A   Clear
11:53 PM 1.9 °F - -0.9 °F 88% 30.60 in 10.0 mi Calm Calm - N/A   Clear